This is the latest recevied weather packets stored in our database for station/object DN9EL-10. If no packets are shown the sender has not sent any weather packets the latest 10 day(s).
| Time | Temp. | Humidity | Pressure | Rain* | Wind** | Luminosity | Snow |
|---|---|---|---|---|---|---|---|
| 1777912439 | 23.89° C | 34% | 958.1 hPa | - | - | - | - |
| 1777911539 | 24.44° C | 34% | 958.1 hPa | - | - | - | - |
| 1777910639 | 24.44° C | 33% | 958.1 hPa | - | - | - | - |
| 1777909739 | 24.44° C | 33% | 958.2 hPa | - | - | - | - |
| 1777908839 | 24.44° C | 32% | 958.3 hPa | - | - | - | - |
| 1777907939 | 24.44° C | 32% | 958.2 hPa | - | - | - | - |
| 1777907039 | 24.44° C | 33% | 958.4 hPa | - | - | - | - |
| 1777906139 | 24.44° C | 33% | 958.3 hPa | - | - | - | - |
| 1777905239 | 24.44° C | 33% | 958.4 hPa | - | - | - | - |
| 1777904338 | 24.44° C | 33% | 958.5 hPa | - | - | - | - |
| 1777903438 | 23.89° C | 33% | 958.6 hPa | - | - | - | - |
| 1777902538 | 25° C | 34% | 958.6 hPa | - | - | - | - |
| 1777901638 | 24.44° C | 34% | 958.7 hPa | - | - | - | - |
| 1777900738 | 25° C | 34% | 958.9 hPa | - | - | - | - |
| 1777899838 | 24.44° C | 35% | 958.9 hPa | - | - | - | - |
| 1777898938 | 23.89° C | 36% | 958.9 hPa | - | - | - | - |
| 1777898038 | 23.33° C | 36% | 958.9 hPa | - | - | - | - |
| 1777897138 | 23.33° C | 36% | 959 hPa | - | - | - | - |
| 1777896238 | 23.89° C | 36% | 958.9 hPa | - | - | - | - |
| 1777895338 | 23.33° C | 37% | 958.9 hPa | - | - | - | - |
| 1777894437 | 22.78° C | 37% | 958.8 hPa | - | - | - | - |
| 1777893537 | 22.22° C | 37% | 959 hPa | - | - | - | - |
| 1777892637 | 21.67° C | 36% | 959.1 hPa | - | - | - | - |
| 1777891737 | 21.67° C | 36% | 959.1 hPa | - | - | - | - |
| 1777890837 | 21.11° C | 36% | 959.3 hPa | - | - | - | - |
* Rain since midnight (hover to see other rain measurements)
** Current wind speed in m/s (hover to see current wind gust speed)